Weather History for Warsaw, IN

Change the Weather History Date:

Monday, January 27, 2014

  Actual Average Record
Temperature  
Mean Temperature 7 °F -  
Max Temperature 21 °F 30 °F 50 °F (1990)
Min Temperature -7 °F 13 °F -11 °F (1963)
Degree Days  
Heating Degree Days 58    
Moisture  
Dew Point -7 °F    
Average Humidity 68    
Maximum Humidity 86    
Minimum Humidity 58    
Precipitation  
Precipitation 0.00 in - - ()
Sea Level Pressure  
Sea Level Pressure 30.11 in    
Wind  
Wind Speed 20 mph (West)    
Max Wind Speed 37 mph    
Max Gust Speed 46 mph    
Visibility 8 miles    
Events Snow    
Averages and records for this station are not official NWS values.
T = Trace of Precipitation, MM = Missing Value Source: NWS Daily Summary

Daily Weather History Graph

Daily Weather History Graph

Search for Another Location

Airport:

Trip Planner

Search our weather history database for the weather conditions in past years. The results will help you decide how hot, cold, wet, or windy it might be!

Date:

Astronomy

Jan. 27, 2014 Rise Set
Actual Time 7:59 AM EST 5:53 PM EST
Civil Twilight 7:29 AM EST 6:23 PM EST
Nautical Twilight 6:56 AM EST 6:56 PM EST
Astronomical Twilight 6:23 AM EST 7:29 PM EST
Moon 4:40 AM EST (1/27) 2:38 PM EST (1/27)
Length of Visible Light 10h 53m
Length of Day
9h 54m
Waning Crescent, 15% of the Moon is Illuminated
Jan 27
Waning Crescent
Jan 30
New
Feb 6
First Quarter
Feb 14
Full
Feb 22
Last Quarter

Hourly Weather History & Observations

Time (EST) Temp. Windchill Dew Point Humidity Pressure Visibility Wind Dir Wind Speed Gust Speed Precip Events Conditions
12:15 AM 21.2 °F 4.2 °F 17.6 °F 86% 29.61 in 1.5 mi West 25.3 mph 35.7 mph N/A Snow Light Snow
12:35 AM 19.4 °F 1.4 °F 10.4 °F 68% 29.61 in 2.0 mi West 26.5 mph 36.8 mph N/A Snow Light Snow
12:55 AM 19.4 °F 2.5 °F 6.8 °F 58% 29.63 in 2.5 mi West 23.0 mph 36.8 mph N/A   Haze
1:15 AM 17.6 °F -2.8 °F 5.0 °F 58% 29.66 in 1.5 mi West 33.4 mph 44.9 mph N/A Snow Light Snow
1:35 AM 14.0 °F -8.5 °F 5.0 °F 67% 29.70 in 0.8 mi West 36.8 mph 46.0 mph N/A Snow Light Snow
1:55 AM 12.2 °F -8.9 °F 3.2 °F 67% 29.71 in 1.5 mi West 28.8 mph 38.0 mph N/A Snow Light Snow
2:15 AM 12.2 °F -9.9 °F 3.2 °F 67% 29.73 in 2.0 mi West 32.2 mph 39.1 mph N/A Snow Light Snow
2:35 AM 10.4 °F -10.7 °F 3.2 °F 73% 29.76 in 1.8 mi West 26.5 mph 35.7 mph N/A Snow Light Snow
2:55 AM 8.6 °F -11.4 °F 3.2 °F 79% 29.79 in 3.0 mi West 21.9 mph 34.5 mph N/A   Haze
3:15 AM 8.6 °F -11.9 °F 3.2 °F 79% 29.81 in 3.0 mi West 23.0 mph 27.6 mph N/A   Haze
3:35 AM 6.8 °F -13.8 °F 1.4 °F 79% 29.82 in 5.0 mi West 21.9 mph 28.8 mph N/A   Haze
3:55 AM 5.0 °F -16.2 °F -0.4 °F 78% 29.85 in 5.0 mi West 21.9 mph 27.6 mph N/A   Haze
4:15 AM 5.0 °F -16.2 °F -0.4 °F 78% 29.88 in 4.0 mi West 21.9 mph 27.6 mph N/A   Haze
4:35 AM 5.0 °F -15.7 °F -0.4 °F 78% 29.90 in 4.0 mi West 20.7 mph 26.5 mph N/A   Haze
4:55 AM 3.2 °F -17.6 °F -0.4 °F 85% 29.92 in 5.0 mi West 19.6 mph 28.8 mph N/A   Haze
5:15 AM 3.2 °F -17.6 °F -2.2 °F 78% 29.93 in 4.0 mi West 19.6 mph 26.5 mph N/A   Haze
5:35 AM 3.2 °F -17.6 °F -4.0 °F 72% 29.95 in 5.0 mi West 19.6 mph 25.3 mph N/A   Haze
5:55 AM 3.2 °F -18.1 °F -4.0 °F 72% 29.97 in 7.0 mi West 20.7 mph 26.5 mph N/A   Clear
6:15 AM 1.4 °F -19.4 °F -5.8 °F 72% 29.98 in 7.0 mi West 18.4 mph 28.8 mph N/A   Clear
6:35 AM 1.4 °F -18.2 °F -5.8 °F 72% 30.00 in 10.0 mi West 16.1 mph 23.0 mph N/A   Clear
6:55 AM 1.4 °F -18.8 °F -5.8 °F 72% 30.01 in 10.0 mi West 17.3 mph 23.0 mph N/A   Clear
7:15 AM 1.4 °F -17.6 °F -5.8 °F 72% 30.03 in 10.0 mi West 15.0 mph 23.0 mph N/A   Clear
7:35 AM 1.4 °F -16.9 °F -7.6 °F 66% 30.05 in 10.0 mi West 13.8 mph - N/A   Clear
7:55 AM -0.4 °F -19.2 °F -7.6 °F 72% 30.06 in 10.0 mi West 13.8 mph 20.7 mph N/A Snow Light Snow
8:15 AM -0.4 °F -19.9 °F -7.6 °F 72% 30.07 in 10.0 mi WSW 15.0 mph 19.6 mph N/A   Clear
8:35 AM -0.4 °F -19.2 °F -7.6 °F 72% 30.09 in 10.0 mi WSW 13.8 mph 18.4 mph N/A   Clear
8:55 AM -0.4 °F -21.2 °F -7.6 °F 72% 30.10 in 10.0 mi West 17.3 mph 21.9 mph N/A   Clear
9:15 AM -0.4 °F -19.2 °F -7.6 °F 72% 30.12 in 10.0 mi WSW 13.8 mph 20.7 mph N/A   Clear
9:35 AM 1.4 °F -18.2 °F -7.6 °F 66% 30.12 in 10.0 mi West 16.1 mph 23.0 mph N/A   Clear
9:55 AM 1.4 °F -20.5 °F -7.6 °F 66% 30.13 in 10.0 mi West 20.7 mph - N/A   Clear
10:15 AM 1.4 °F -17.6 °F -7.6 °F 66% 30.14 in 10.0 mi West 15.0 mph 20.7 mph N/A   Clear
10:35 AM 1.4 °F -18.2 °F -7.6 °F 66% 30.15 in 10.0 mi West 16.1 mph 20.7 mph N/A   Clear
10:55 AM 1.4 °F -19.4 °F -7.6 °F 66% 30.15 in 10.0 mi West 18.4 mph 26.5 mph N/A   Clear
11:15 AM 3.2 °F -17.1 °F -7.6 °F 61% 30.16 in 7.0 mi West 18.4 mph - N/A   Clear
11:35 AM 3.2 °F -17.6 °F -7.6 °F 61% 30.16 in 10.0 mi West 19.6 mph 27.6 mph N/A   Clear
11:55 AM 3.2 °F -17.6 °F -7.6 °F 61% 30.17 in 7.0 mi WSW 19.6 mph 25.3 mph N/A   Clear
12:15 PM 3.2 °F -15.9 °F -7.6 °F 61% 30.18 in 10.0 mi WSW 16.1 mph 24.2 mph N/A   Clear
12:35 PM 3.2 °F -16.5 °F -7.6 °F 61% 30.18 in 10.0 mi West 17.3 mph 23.0 mph N/A   Clear
12:55 PM 3.2 °F -16.5 °F -7.6 °F 61% 30.18 in 10.0 mi WSW 17.3 mph 25.3 mph N/A   Clear
1:15 PM 3.2 °F -16.5 °F -7.6 °F 61% 30.18 in 10.0 mi West 17.3 mph 24.2 mph N/A   Clear
1:35 PM 3.2 °F -17.6 °F -7.6 °F 61% 30.18 in 10.0 mi West 19.6 mph 24.2 mph N/A   Clear
1:55 PM 1.4 °F -19.4 °F -7.6 °F 66% 30.19 in 10.0 mi West 18.4 mph 24.2 mph N/A   Scattered Clouds
2:15 PM 3.2 °F -15.3 °F -7.6 °F 61% 30.19 in 10.0 mi WSW 15.0 mph 23.0 mph N/A   Mostly Cloudy
2:35 PM 1.4 °F -18.8 °F -9.4 °F 61% 30.20 in 10.0 mi West 17.3 mph 23.0 mph N/A   Mostly Cloudy
2:55 PM 1.4 °F -18.8 °F -7.6 °F 66% 30.20 in 10.0 mi West 17.3 mph 20.7 mph N/A   Mostly Cloudy
3:15 PM 1.4 °F -19.9 °F -7.6 °F 66% 30.20 in 10.0 mi West 19.6 mph - N/A   Mostly Cloudy
3:35 PM 1.4 °F -19.9 °F -9.4 °F 61% 30.20 in 10.0 mi West 19.6 mph 25.3 mph N/A   Mostly Cloudy
3:55 PM 1.4 °F -18.8 °F -9.4 °F 61% 30.21 in 10.0 mi West 17.3 mph 23.0 mph N/A   Mostly Cloudy
4:15 PM 1.4 °F -18.2 °F -9.4 °F 61% 30.23 in 10.0 mi West 16.1 mph - N/A   Scattered Clouds
4:35 PM -0.4 °F -22.3 °F -9.4 °F 66% 30.24 in 10.0 mi West 19.6 mph 23.0 mph N/A   Scattered Clouds
4:55 PM -0.4 °F -22.3 °F -9.4 °F 66% 30.25 in 10.0 mi West 19.6 mph 24.2 mph N/A   Scattered Clouds
5:15 PM -0.4 °F -21.2 °F -11.2 °F 60% 30.26 in 10.0 mi West 17.3 mph 23.0 mph N/A   Clear
5:35 PM -2.2 °F -22.2 °F -11.2 °F 66% 30.26 in 10.0 mi West 15.0 mph - N/A   Clear
5:55 PM -2.2 °F -22.9 °F -13.0 °F 60% 30.27 in 10.0 mi West 16.1 mph 21.9 mph N/A   Clear
6:15 PM -4.0 °F -23.7 °F -13.0 °F 65% 30.28 in 10.0 mi West 13.8 mph - N/A   Clear
6:35 PM -4.0 °F -22.1 °F -13.0 °F 65% 30.29 in 10.0 mi West 11.5 mph - N/A   Clear
6:55 PM -4.0 °F -22.1 °F -13.0 °F 65% 30.30 in 10.0 mi West 11.5 mph - N/A   Clear
7:15 PM -4.0 °F -22.1 °F -13.0 °F 65% 30.31 in 10.0 mi WSW 11.5 mph - N/A   Clear
7:35 PM -5.8 °F -23.4 °F -13.0 °F 71% 30.32 in 10.0 mi West 10.4 mph - N/A   Clear
7:55 PM -5.8 °F -24.4 °F -14.8 °F 65% 30.32 in 10.0 mi West 11.5 mph - N/A   Clear
8:15 PM -5.8 °F -23.4 °F -14.8 °F 65% 30.33 in 10.0 mi West 10.4 mph - N/A   Clear
8:35 PM -5.8 °F -23.4 °F -14.8 °F 65% 30.33 in 10.0 mi West 10.4 mph - N/A   Clear
8:55 PM -5.8 °F -23.4 °F -14.8 °F 65% 30.34 in 10.0 mi WSW 10.4 mph - N/A   Clear
9:15 PM -7.6 °F -26.6 °F -14.8 °F 71% 30.35 in 10.0 mi WSW 11.5 mph - N/A   Clear
9:35 PM -7.6 °F -26.6 °F -14.8 °F 71% 30.35 in 10.0 mi West 11.5 mph - N/A   Clear
9:55 PM -7.6 °F -26.6 °F -16.6 °F 65% 30.35 in 10.0 mi West 11.5 mph - N/A   Clear
10:15 PM -7.6 °F -25.7 °F -16.6 °F 65% 30.35 in 10.0 mi West 10.4 mph - N/A   Clear
10:35 PM -7.6 °F -23.4 °F -16.6 °F 65% 30.36 in 10.0 mi WSW 8.1 mph - N/A   Clear
10:55 PM -7.6 °F -24.6 °F -16.6 °F 65% 30.37 in 10.0 mi WSW 9.2 mph - N/A   Clear
11:15 PM -7.6 °F -24.6 °F -16.6 °F 65% 30.38 in 10.0 mi WSW 9.2 mph - N/A   Clear
11:35 PM -7.6 °F -24.6 °F -16.6 °F 65% 30.37 in 10.0 mi WSW 9.2 mph - N/A   Clear
11:55 PM -7.6 °F -24.6 °F -16.6 °F 65% 30.38 in 10.0 mi WSW 9.2 mph - N/A   Clear